Preview of NWS' New Version of Forecast
This preview is not operational and should not be used for support decisions.

Regional Weather Roundup (RWR)

Issued by National Weather Service (NWS)

                            
000
ASUS42 KTBW 250515
RWRFL 
FLORIDA REGIONAL WEATHER ROUNDUP
NATIONAL WEATHER SERVICE TAMPA BAY RUSKIN FL
100 AM EDT TUE JUN 25 2019

NOTE: "FAIR" INDICATES FEW OR NO CLOUDS BELOW 12,000 FEET WITH NO
SIGNIFICANT WEATHER AND/OR OBSTRUCTIONS TO VISIBILITY.

FLZ001>010-012>015-112-114-115-250600-
PANHANDLE FLORIDA
  
CITY           SKY/WX    TMP DP  RH WIND       PRES   REMARKS
PENSACOLA      FAIR      82  79  90 SW6       29.99F                  
PENSACOLA NAS  FAIR      82  80  94 SW8       29.99S                  
MILTON NAS     FAIR      77  74  90 CALM      30.00F                  
CRESTVIEW      FAIR      76  72  87 CALM      30.02S                  
DUKE FIELD     FAIR      77  76  98 CALM      30.00F                  
VALPARAISO     FAIR      83  76  80 SW6       29.99F                  
MARY ESTHER    CLEAR     83  78  84 CALM      29.98F                  
PANAMA CITY    FAIR      81  77  88 S6        30.00F                  
TYNDALL AFB    FAIR      84  78  83 SW10      30.00F                  
APALACHICOLA   FAIR      84  76  76 SW7       30.01F                  

STATION/POSITION SKY/WX   TEMP    WIND        PRES    WAVE   SWELL
                          AIR SEA DIR/SP/G            HT/PER HT/PER
                          (F)     (DEG/KT/KT) (MB)    (FT/S) (FT/S)
30.1N   87.6W                                   N/A     3/ 7
29.2N   88.2W                     170/ 12/ 14 1016.2F   3/ 6   2/ 6
PANAMA CITY BEAC           84 86  210/ 11/ 14 1016.6
TOWER C          NOT AVBL

$$
FLZ011-016>038-118-127-128-134-139-239-250600-
NORTH FLORIDA
  
CITY           SKY/WX    TMP DP  RH WIND       PRES   REMARKS
MARIANNA       FAIR      79  77  94 S6        30.00S                  
TALLAHASSEE    FAIR      81  78  91 SW5       30.01F                  
PERRY          FAIR      81  80  95 SW5       30.02F                  
LIVE OAK       PTCLDY    73  72  94 CALM      30.01F                  
CROSS CITY     FAIR      80  78  94 SW5       30.03S                  
LAKE CITY      FAIR      72  68  88 SW3       30.02F                  
GAINESVILLE    FAIR      77  73  87 CALM      30.05F                  
PALATKA        FAIR      77  73  88 W5        30.02S                  
MAYPORT NAS    FAIR      83  67  58 SW7       29.99F                  
JACKSONVILLE   FAIR      76  66  71 SW6       29.99S                  
JAX NAS        FAIR      82  66  58 SW10      30.01F                  
JAX CECIL      MOCLDY    75  68  78 SW5       30.01S                  
FERNANDINA BEA FAIR      80  68  67 W8        29.99S                  
ST AUGUSTINE   FAIR      80  73  79 W8        30.01F                  
PALM COAST     FAIR      79  74  84 SW3       30.01F                  

STATION/POSITION SKY/WX   TEMP    WIND        PRES    WAVE   SWELL
                          AIR SEA DIR/SP/G            HT/PER HT/PER
                          (F)     (DEG/KT/KT) (MB)    (FT/S) (FT/S)
SHELL POINT      NOT AVBL
KEATON BEACH               84     270/ 11/ 12 1016.7F
CEDAR KEY                  85     270/  8/ 10 1017.7R
FERNANDINA                 85 85  240/  4/  7 1016.2F
30.7N   81.3W                 83                N/A     2/ 9
MAYPORT                    84 84  250/  7/ 10 1015.9F
31.4N   80.9W              85 83  270/ 14/ 16 1014.4F   3/ 4
ST AUGUSTINE               82 83  250/  8/ 10 1016.1F

$$
FLZ040-043>046-052-053-057-058-063-144-250600-
INTERIOR CENTRAL FLORIDA
  
CITY           SKY/WX    TMP DP  RH WIND       PRES   REMARKS
OCALA          FAIR      77  75  93 S3        30.05F                  
LEESBURG       FAIR      79  75  87 W3        30.05F                  
SANFORD        FAIR      80  73  79 W8        30.03F                  
ORLANDO EXEC   FAIR      83  74  74 NW12      30.04S                  
ORLANDO INTL   FAIR      82  71  69 NW6       30.04S                  
KISSIMMEE      FAIR      79  73  82 NW6       30.05F                  
WINTER HAVEN   FAIR      80  74  81 W7        30.05F                  
LAKELAND       FAIR      79  72  78 CALM      30.05F                  
SEBRING        FAIR      82  73  74 CALM      30.04F                  
OKEECHOBEE     FAIR      79  73  83 CALM      30.03S                  

$$
FLZ041-047-054-059-064-141-147-250600-
EAST CENTRAL FLORIDA
  
CITY           SKY/WX    TMP DP  RH WIND       PRES   REMARKS
DAYTONA BEACH  FAIR      79  74  84 SW6       30.02F                  
DELAND         FAIR      79  73  83 W7        30.03F                  
JFK SPACE CTR  FAIR      79  67  68 SW3       30.02F                  
CAPE CANAVERAL FAIR      81  38  21 SW3       30.02F                  
PATRICK AFB    FAIR      83  82  94 S9        30.02F HX  98           
MELBOURNE      FAIR      83  78  85 S7        30.02F                  
VERO BEACH     FAIR      82  77  84 S5        30.03F                  
FT PIERCE      FAIR      80  75  84 CALM      30.03F                  
STUART         CLOUDY    82  73  74 S5        30.05F                  

STATION/POSITION SKY/WX   TEMP    WIND        PRES    WAVE   SWELL
                          AIR SEA DIR/SP/G            HT/PER HT/PER
                          (F)     (DEG/KT/KT) (MB)    (FT/S) (FT/S)
28.5N   80.2W              82 83  200/ 10/ 12 1016.5F   1/ 8   2/ 8
28.9N   78.5W              82 84  180/  8/ 10   N/A     2/ 8   2/ 8
TRIDENT PIER               82 75  190/  6/  7 1018.3F
28.4N   80.5W                 80                N/A     1/ 9
27.5N   80.2W                 82                N/A     1/ 9

$$
FLZ050-056-061-142-242-148-248-149-249-151-251-155-255-
160-260-250600-
WEST CENTRAL FLORIDA
  
CITY           SKY/WX    TMP DP  RH WIND       PRES   REMARKS
CRYSTAL RIVER  FAIR     N/A N/A N/A CALM      30.04F                  
INVERNESS      FAIR      73  73 100 CALM      30.05F                  
BROOKSVILLE    FAIR      75  73  93 CALM      30.06S                  
CLEARWATER AIR FAIR      81  72  74 CALM      30.04F                  
ST PETE CLEARW FAIR      80  74  81 W3        30.04F                  
TAMPA INTL     FAIR      83  74  74 NW5       30.05F                  
PLANT CITY       N/A    N/A N/A N/A MISG        N/A                   
MACDILL AFB    FAIR      81  74  79 CALM      30.04F                  
PETER O KNIGHT CLOUDY    81  77  89 CALM      30.04F                  
ST PETERSBURG    N/A    N/A N/A N/A MISG      30.03F                  
SARASOTA       FAIR      80  74  81 CALM      30.03F                  
VENICE         FAIR      82  75  78 CALM      30.05S                  

STATION/POSITION SKY/WX   TEMP    WIND        PRES    WAVE   SWELL
                          AIR SEA DIR/SP/G            HT/PER HT/PER
                          (F)     (DEG/KT/KT) (MB)    (FT/S) (FT/S)
27.3N   84.2W                 87                N/A     1/ 9
CLEARWATER BEACH           84 90  250/  5/  8 1017.9
MIDDLE TAMPA BAY           83     350/  5/  6 1017.9F
VENICE                     83 86   30/  3/  4 1017.1F

$$
FLZ066-069-070-075>078-162-262-165-265-250600-
SOUTHWEST FLORIDA AND KEYS
  
CITY           SKY/WX    TMP DP  RH WIND       PRES   REMARKS
PUNTA GORDA    FAIR      80  75  84 NW7       30.05F                  
FT MYERS       FAIR      83  32  16 N7        30.03F                  
SOUTHWEST INTL FAIR      82  75  79 NW3       30.04S                  
NAPLES         FAIR      85  76  74 CALM      30.03F                  
IMMOKALEE      FAIR      79  73  83 CALM      30.03S                  
MARATHON       FAIR      85  75  72 SE6       30.04S                  
KEY WEST NAS   FAIR      86  76  71 SE7       30.04S HX  96           
KEY WEST INTL  FAIR      85  76  74 SE7       30.04S                  

STATION/POSITION SKY/WX   TEMP    WIND        PRES    WAVE   SWELL
                          AIR SEA DIR/SP/G            HT/PER HT/PER
                          (F)     (DEG/KT/KT) (MB)    (FT/S) (FT/S)
NAPLES                     87 91              1017.3F
DRY TORTUGAS               86      70/ 10/ 11 1017.3F
SAND KEY                   84                 1017.3R
SOMBRERO KEY               85                 1016.6F
LONG KEY                   86     130/ 14/ 18 1017.2

$$
FLZ067-068-071>074-168-172>174-250600-
SOUTHEAST FLORIDA 
  
CITY           SKY/WX    TMP DP  RH WIND       PRES   REMARKS
W PALM BEACH   MOCLDY    84  75  74 S5        30.05S                  
FT LAUDER-EXEC FAIR      83  75  77 S3        30.03F                  
FT LAUDERDALE  FAIR      84  75  74 CALM      30.03S                  
POMPANO BEACH  FAIR      85  75  72 CALM      30.04S                  
PEMBROKE PINES FAIR      85  75  72 CALM      30.05S                  
OPA LOCKA      FAIR      84  75  74 S3        30.04F                  
MIAMI          FAIR      84  73  69 S5        30.04F                  
WEST KENDALL   FAIR      82  76  81 SW3       30.04S                  
HOMESTEAD      FAIR      80  76  90 CALM      30.03F                  

STATION/POSITION SKY/WX   TEMP    WIND        PRES    WAVE   SWELL
                          AIR SEA DIR/SP/G            HT/PER HT/PER
                          (F)     (DEG/KT/KT) (MB)    (FT/S) (FT/S)
VIRGINIA KEY               87 90  170/  5/  6 1016.9
LAKE WORTH                 85 83  200/  4/  6 1018.4F
FOWEY ROCKS                85 85  190/  8/  8 1017.5F
SETTLEMENT POINT           85     200/  9/  9 1017.2F

$$